Location: Hall+in+Tirol
(47.2830°N, 11.5170°E)
Time: 20:46:43
(UTC+02:00)

Gurwin Techsat 1B - Visible Passes

Search period start: 25 July 2017 00:00
Search period end: 04 August 2017 00:00
Orbit: 813 x 813 km, 98.6° (Epoch: 25 July)

Date Brightness Start Highest point End Pass type
(mag) Time Alt. Az. Time Alt. Az. Time Alt. Az.
25 Jul 9.5 02:42:49 10° NNE 02:47:52 41° E 02:50:31 24° SSE visible
25 Jul 9.7 04:23:01 10° N 04:27:41 32° WNW 04:31:44 13° WSW visible
26 Jul 10.1 02:20:24 10° NE 02:24:52 27° E 02:27:23 19° SE visible
26 Jul 9.1 03:59:56 10° N 04:05:02 48° WNW 04:08:35 19° SW visible
27 Jul 10.7 01:58:19 10° NE 02:01:48 17° E 02:04:14 13° ESE visible
27 Jul 8.6 03:36:59 10° N 03:42:18 73° WNW 03:45:26 25° SSW visible
28 Jul 11.0 01:37:29 10° ENE 01:38:39 11° E 01:39:48 10° E visible
28 Jul 8.7 03:14:09 10° NNE 03:19:30 75° ESE 03:22:16 29° S visible
28 Jul 10.3 04:55:13 10° NNW 04:58:52 19° WNW 05:02:31 10° W visible
29 Jul 9.2 02:51:27 10° NNE 02:56:37 48° E 02:59:07 28° SSE visible
29 Jul 9.9 04:31:53 10° N 04:36:19 28° WNW 04:40:19 12° WSW visible
30 Jul 9.9 02:28:57 10° NNE 02:33:40 31° E 02:35:58 23° SE visible
30 Jul 9.3 04:08:44 10° N 04:13:42 41° WNW 04:17:10 18° SW visible
31 Jul 10.5 02:06:42 10° NE 02:10:38 21° E 02:12:48 16° ESE visible
31 Jul 8.8 03:45:44 10° N 03:51:00 62° WNW 03:54:00 26° SW visible
01 Aug 10.9 01:45:06 10° ENE 01:47:30 13° E 01:49:39 11° ESE visible
01 Aug 8.6 03:22:52 10° NNE 03:28:14 88° ESE 03:30:50 32° SSW visible
01 Aug 10.5 05:04:14 10° NNW 05:07:28 17° NW 05:10:42 10° W visible
02 Aug 9.0 03:00:07 10° NNE 03:05:23 57° E 03:07:41 32° SSE visible
02 Aug 10.0 04:40:47 10° N 04:44:57 24° WNW 04:48:53 11° WSW visible
03 Aug 9.7 02:37:31 10° NNE 02:42:27 37° E 02:44:32 27° SE visible
03 Aug 9.5 04:17:34 10° N 04:22:21 35° WNW 04:25:44 17° WSW visible
